Wetterdaten: Sonntag, 09.06.2013
Datum Zeit Temperatur Luftfeuchte Luftdruck Regen Wind Richtung Richtung Sonnenschein ET UV Solar Taupunkt Windchill Windben
09.06.2013 00:00 17,4 C 70 % 1011,6 hPa 0,0 l/m 0,1 km/h (0 Bft) O-SO 102 0 min 0,000 mm 0,0 UV-I 0 W/m 11,9 C 17,4 C 1,6 km/h (1 Bft)
09.06.2013 00:05 17,4 C 69 % 1011,6 hPa 0,0 l/m 0,5 km/h (0 Bft) O 101 0 min 0,000 mm 0,0 UV-I 0 W/m 11,7 C 17,4 C 3,2 km/h (1 Bft)
09.06.2013 00:10 17,5 C 69 % 1011,6 hPa 0,0 l/m 1,7 km/h (1 Bft) O-NO 74 0 min 0,000 mm 0,0 UV-I 0 W/m 11,7 C 17,5 C 4,8 km/h (1 Bft)
09.06.2013 00:15 17,5 C 68 % 1011,5 hPa 0,0 l/m 0,5 km/h (0 Bft) O-NO 74 0 min 0,000 mm 0,0 UV-I 0 W/m 11,5 C 17,5 C 3,2 km/h (1 Bft)
09.06.2013 00:20 17,4 C 68 % 1011,5 hPa 0,0 l/m 0,2 km/h (0 Bft) O-NO 74 0 min 0,000 mm 0,0 UV-I 0 W/m 11,4 C 17,4 C 3,2 km/h (1 Bft)
09.06.2013 00:25 17,3 C 69 % 1011,5 hPa 0,0 l/m 1,3 km/h (1 Bft) O-NO 74 0 min 0,000 mm 0,0 UV-I 0 W/m 11,6 C 17,3 C 3,2 km/h (1 Bft)
09.06.2013 00:30 17,3 C 69 % 1011,5 hPa 0,0 l/m 0,3 km/h (0 Bft) O-NO 74 0 min 0,000 mm 0,0 UV-I 0 W/m 11,6 C 17,3 C 1,6 km/h (1 Bft)
09.06.2013 00:35 17,2 C 69 % 1011,4 hPa 0,0 l/m 0,1 km/h (0 Bft) O-NO 74 0 min 0,000 mm 0,0 UV-I 0 W/m 11,5 C 17,2 C 1,6 km/h (1 Bft)
09.06.2013 00:40 17,1 C 69 % 1011,5 hPa 0,0 l/m 0,5 km/h (0 Bft) O-NO 74 0 min 0,000 mm 0,0 UV-I 0 W/m 11,4 C 17,1 C 3,2 km/h (1 Bft)
09.06.2013 00:45 17,0 C 70 % 1011,5 hPa 0,0 l/m 1,3 km/h (1 Bft) O-NO 74 0 min 0,000 mm 0,0 UV-I 0 W/m 11,5 C 17,0 C 4,8 km/h (1 Bft)
09.06.2013 00:50 16,8 C 70 % 1011,5 hPa 0,0 l/m 0,9 km/h (0 Bft) O-NO 74 0 min 0,000 mm 0,0 UV-I 0 W/m 11,3 C 16,8 C 4,8 km/h (1 Bft)
09.06.2013 00:55 16,8 C 71 % 1011,5 hPa 0,0 l/m 0,4 km/h (0 Bft) O-NO 74 0 min 0,000 mm 0,0 UV-I 0 W/m 11,5 C 16,8 C 3,2 km/h (1 Bft)
09.06.2013 01:00 16,8 C 71 % 1011,6 hPa 0,0 l/m 0,1 km/h (0 Bft) O-NO 74 0 min 0,000 mm 0,0 UV-I 0 W/m 11,5 C 16,8 C 1,6 km/h (1 Bft)
09.06.2013 01:05 16,8 C 71 % 1011,5 hPa 0,0 l/m 0,1 km/h (0 Bft) O-NO 74 0 min 0,025 mm 0,0 UV-I 0 W/m 11,5 C 16,8 C 1,6 km/h (1 Bft)
09.06.2013 01:10 16,8 C 71 % 1011,5 hPa 0,0 l/m 0,1 km/h (0 Bft) O-NO 74 0 min 0,000 mm 0,0 UV-I 0 W/m 11,5 C 16,8 C 1,6 km/h (1 Bft)
09.06.2013 01:15 16,8 C 71 % 1011,5 hPa 0,0 l/m 0,4 km/h (0 Bft) O-NO 74 0 min 0,000 mm 0,0 UV-I 0 W/m 11,5 C 16,8 C 3,2 km/h (1 Bft)
09.06.2013 01:20 16,8 C 71 % 1011,5 hPa 0,0 l/m 0,0 km/h (0 Bft) O-NO 74 0 min 0,000 mm 0,0 UV-I 0 W/m 11,5 C 16,8 C 1,6 km/h (1 Bft)
09.06.2013 01:25 16,8 C 71 % 1011,5 hPa 0,0 l/m 0,0 km/h (0 Bft) O-NO 74 0 min 0,000 mm 0,0 UV-I 0 W/m 11,5 C 16,8 C 0,0 km/h (0 Bft)
09.06.2013 01:30 16,7 C 71 % 1011,5 hPa 0,0 l/m 0,1 km/h (0 Bft) O-NO 74 0 min 0,000 mm 0,0 UV-I 0 W/m 11,4 C 16,7 C 1,6 km/h (1 Bft)
09.06.2013 01:35 16,6 C 71 % 1011,4 hPa 0,0 l/m 0,4 km/h (0 Bft) O-NO 74 0 min 0,000 mm 0,0 UV-I 0 W/m 11,3 C 16,6 C 3,2 km/h (1 Bft)
09.06.2013 01:40 16,4 C 72 % 1011,5 hPa 0,0 l/m 0,8 km/h (0 Bft) O-NO 74 0 min 0,000 mm 0,0 UV-I 0 W/m 11,3 C 16,4 C 3,2 km/h (1 Bft)
09.06.2013 01:45 16,3 C 72 % 1011,4 hPa 0,0 l/m 0,5 km/h (0 Bft) O-NO 74 0 min 0,000 mm 0,0 UV-I 0 W/m 11,2 C 16,3 C 3,2 km/h (1 Bft)
09.06.2013 01:50 16,3 C 72 % 1011,4 hPa 0,0 l/m 0,3 km/h (0 Bft) O-NO 74 0 min 0,000 mm 0,0 UV-I 0 W/m 11,2 C 16,3 C 3,2 km/h (1 Bft)
09.06.2013 01:55 16,2 C 72 % 1011,4 hPa 0,0 l/m 0,4 km/h (0 Bft) O-NO 74 0 min 0,000 mm 0,0 UV-I 0 W/m 11,1 C 16,2 C 3,2 km/h (1 Bft)
09.06.2013 02:00 16,2 C 72 % 1011,3 hPa 0,0 l/m 0,1 km/h (0 Bft) O-NO 74 0 min 0,000 mm 0,0 UV-I 0 W/m 11,1 C 16,2 C 1,6 km/h (1 Bft)
09.06.2013 02:05 16,2 C 73 % 1011,3 hPa 0,0 l/m 0,5 km/h (0 Bft) O-NO 74 0 min 0,026 mm 0,0 UV-I 0 W/m 11,4 C 16,2 C 4,8 km/h (1 Bft)
09.06.2013 02:10 16,2 C 73 % 1011,3 hPa 0,0 l/m 0,3 km/h (0 Bft) O-NO 74 0 min 0,000 mm 0,0 UV-I 0 W/m 11,4 C 16,2 C 3,2 km/h (1 Bft)
09.06.2013 02:15 16,1 C 73 % 1011,3 hPa 0,0 l/m 0,3 km/h (0 Bft) O-NO 74 0 min 0,000 mm 0,0 UV-I 0 W/m 11,3 C 16,1 C 3,2 km/h (1 Bft)
09.06.2013 02:20 16,0 C 73 % 1011,3 hPa 0,0 l/m 0,7 km/h (0 Bft) O-NO 73 0 min 0,000 mm 0,0 UV-I 0 W/m 11,2 C 16,0 C 4,8 km/h (1 Bft)
09.06.2013 02:25 15,9 C 74 % 1011,2 hPa 0,0 l/m 1,5 km/h (1 Bft) NO 53 0 min 0,000 mm 0,0 UV-I 0 W/m 11,3 C 15,9 C 4,8 km/h (1 Bft)
09.06.2013 02:30 15,8 C 74 % 1011,1 hPa 0,0 l/m 1,0 km/h (0 Bft) NO 53 0 min 0,000 mm 0,0 UV-I 0 W/m 11,2 C 15,8 C 4,8 km/h (1 Bft)
09.06.2013 02:35 15,8 C 74 % 1011,1 hPa 0,0 l/m 0,6 km/h (0 Bft) NO 54 0 min 0,000 mm 0,0 UV-I 0 W/m 11,2 C 15,8 C 4,8 km/h (1 Bft)
09.06.2013 02:40 15,8 C 74 % 1011,0 hPa 0,0 l/m 0,7 km/h (0 Bft) NO 45 0 min 0,000 mm 0,0 UV-I 0 W/m 11,2 C 15,8 C 3,2 km/h (1 Bft)
09.06.2013 02:45 15,8 C 74 % 1010,9 hPa 0,0 l/m 0,0 km/h (0 Bft) NO 45 0 min 0,000 mm 0,0 UV-I 0 W/m 11,2 C 15,8 C 1,6 km/h (1 Bft)
09.06.2013 02:50 15,8 C 74 % 1010,8 hPa 0,0 l/m 0,0 km/h (0 Bft) NO 45 0 min 0,000 mm 0,0 UV-I 0 W/m 11,2 C 15,8 C 1,6 km/h (1 Bft)
09.06.2013 02:55 15,8 C 74 % 1010,8 hPa 0,0 l/m 0,3 km/h (0 Bft) NO 45 0 min 0,000 mm 0,0 UV-I 0 W/m 11,2 C 15,8 C 3,2 km/h (1 Bft)
09.06.2013 03:00 15,8 C 74 % 1010,7 hPa 0,0 l/m 0,1 km/h (0 Bft) NO 45 0 min 0,000 mm 0,0 UV-I 0 W/m 11,2 C 15,8 C 3,2 km/h (1 Bft)
09.06.2013 03:05 15,8 C 74 % 1010,7 hPa 0,0 l/m 0,2 km/h (0 Bft) NO 45 0 min 0,025 mm 0,0 UV-I 0 W/m 11,2 C 15,8 C 1,6 km/h (1 Bft)
09.06.2013 03:10 15,8 C 75 % 1010,6 hPa 0,0 l/m 0,4 km/h (0 Bft) NO 45 0 min 0,000 mm 0,0 UV-I 0 W/m 11,4 C 15,8 C 3,2 km/h (1 Bft)
09.06.2013 03:15 15,8 C 75 % 1010,6 hPa 0,0 l/m 0,3 km/h (0 Bft) O-NO 76 0 min 0,000 mm 0,0 UV-I 0 W/m 11,4 C 15,8 C 4,8 km/h (1 Bft)
09.06.2013 03:20 15,8 C 74 % 1010,4 hPa 0,0 l/m 0,1 km/h (0 Bft) O-NO 76 0 min 0,000 mm 0,0 UV-I 0 W/m 11,2 C 15,8 C 1,6 km/h (1 Bft)
09.06.2013 03:25 15,8 C 74 % 1010,3 hPa 0,0 l/m 0,0 km/h (0 Bft) O-NO 76 0 min 0,000 mm 0,0 UV-I 0 W/m 11,2 C 15,8 C 0,0 km/h (0 Bft)
09.06.2013 03:30 15,8 C 75 % 1010,2 hPa 0,0 l/m 0,0 km/h (0 Bft) O-NO 76 0 min 0,000 mm 0,0 UV-I 0 W/m 11,4 C 15,8 C 0,0 km/h (0 Bft)
09.06.2013 03:35 15,8 C 75 % 1010,2 hPa 0,0 l/m 0,4 km/h (0 Bft) O 82 0 min 0,000 mm 0,0 UV-I 0 W/m 11,4 C 15,8 C 3,2 km/h (1 Bft)
09.06.2013 03:40 15,8 C 75 % 1010,2 hPa 0,0 l/m 0,4 km/h (0 Bft) O-SO 117 0 min 0,000 mm 0,0 UV-I 0 W/m 11,4 C 15,8 C 4,8 km/h (1 Bft)
09.06.2013 03:45 15,8 C 75 % 1010,2 hPa 0,0 l/m 0,6 km/h (0 Bft) O-SO 117 0 min 0,000 mm 0,0 UV-I 0 W/m 11,4 C 15,8 C 3,2 km/h (1 Bft)
09.06.2013 03:50 15,8 C 75 % 1010,2 hPa 0,0 l/m 0,1 km/h (0 Bft) O-SO 117 0 min 0,000 mm 0,0 UV-I 0 W/m 11,4 C 15,8 C 1,6 km/h (1 Bft)
09.06.2013 03:55 15,8 C 74 % 1010,2 hPa 0,0 l/m 0,0 km/h (0 Bft) O-SO 117 0 min 0,000 mm 0,0 UV-I 0 W/m 11,2 C 15,8 C 1,6 km/h (1 Bft)
09.06.2013 04:00 15,8 C 74 % 1010,1 hPa 0,0 l/m 2,4 km/h (1 Bft) O-NO 71 0 min 0,000 mm 0,0 UV-I 0 W/m 11,2 C 15,8 C 6,4 km/h (2 Bft)
09.06.2013 04:05 15,7 C 74 % 1010,1 hPa 0,0 l/m 1,1 km/h (1 Bft) O-NO 62 0 min 0,026 mm 0,0 UV-I 0 W/m 11,1 C 15,7 C 4,8 km/h (1 Bft)
09.06.2013 04:10 15,7 C 74 % 1010,0 hPa 0,0 l/m 0,1 km/h (0 Bft) O-NO 62 0 min 0,000 mm 0,0 UV-I 0 W/m 11,1 C 15,7 C 3,2 km/h (1 Bft)
09.06.2013 04:15 15,7 C 74 % 1010,0 hPa 0,0 l/m 0,2 km/h (0 Bft) O-NO 62 0 min 0,000 mm 0,0 UV-I 0 W/m 11,1 C 15,7 C 3,2 km/h (1 Bft)
09.06.2013 04:20 15,6 C 74 % 1010,0 hPa 0,0 l/m 0,5 km/h (0 Bft) O-NO 76 0 min 0,000 mm 0,0 UV-I 0 W/m 11,0 C 15,6 C 4,8 km/h (1 Bft)
09.06.2013 04:25 15,6 C 74 % 1009,9 hPa 0,0 l/m 1,4 km/h (1 Bft) NO 53 0 min 0,000 mm 0,0 UV-I 0 W/m 11,0 C 15,6 C 4,8 km/h (1 Bft)
09.06.2013 04:30 15,6 C 74 % 1009,9 hPa 0,0 l/m 1,1 km/h (1 Bft) N-NO 29 0 min 0,000 mm 0,0 UV-I 0 W/m 11,0 C 15,6 C 4,8 km/h (1 Bft)
09.06.2013 04:35 15,5 C 74 % 1009,9 hPa 0,0 l/m 0,4 km/h (0 Bft) N-NO 29 0 min 0,000 mm 0,0 UV-I 0 W/m 10,9 C 15,5 C 3,2 km/h (1 Bft)
09.06.2013 04:40 15,4 C 74 % 1009,9 hPa 0,0 l/m 1,1 km/h (1 Bft) N-NO 30 0 min 0,000 mm 0,0 UV-I 0 W/m 10,8 C 15,4 C 3,2 km/h (1 Bft)
09.06.2013 04:45 15,3 C 75 % 1009,8 hPa 0,0 l/m 0,2 km/h (0 Bft) N-NO 30 0 min 0,000 mm 0,0 UV-I 0 W/m 10,9 C 15,3 C 3,2 km/h (1 Bft)
09.06.2013 04:50 15,2 C 75 % 1009,8 hPa 0,0 l/m 0,0 km/h (0 Bft) N-NO 30 0 min 0,000 mm 0,0 UV-I 0 W/m 10,8 C 15,2 C 0,0 km/h (0 Bft)
09.06.2013 04:55 15,2 C 75 % 1009,7 hPa 0,0 l/m 0,0 km/h (0 Bft) N-NO 30 0 min 0,000 mm 0,0 UV-I 0 W/m 10,8 C 15,2 C 0,0 km/h (0 Bft)
09.06.2013 05:00 15,1 C 75 % 1009,6 hPa 0,0 l/m 0,1 km/h (0 Bft) N-NO 30 0 min 0,000 mm 0,0 UV-I 0 W/m 10,7 C 15,1 C 1,6 km/h (1 Bft)
09.06.2013 05:05 14,9 C 76 % 1009,5 hPa 0,0 l/m 0,7 km/h (0 Bft) N-NO 31 0 min 0,000 mm 0,0 UV-I 0 W/m 10,7 C 14,9 C 3,2 km/h (1 Bft)
09.06.2013 05:10 14,8 C 76 % 1009,5 hPa 0,0 l/m 0,4 km/h (0 Bft) NO 35 0 min 0,000 mm 0,0 UV-I 0 W/m 10,6 C 14,8 C 4,8 km/h (1 Bft)
09.06.2013 05:15 14,8 C 77 % 1009,6 hPa 0,0 l/m 0,8 km/h (0 Bft) O 83 0 min 0,000 mm 0,0 UV-I 0 W/m 10,8 C 14,8 C 8,0 km/h (2 Bft)
09.06.2013 05:20 14,7 C 77 % 1009,7 hPa 0,0 l/m 0,8 km/h (0 Bft) O 86 0 min 0,000 mm 0,0 UV-I 5 W/m 10,7 C 14,7 C 3,2 km/h (1 Bft)
09.06.2013 05:25 14,7 C 77 % 1009,7 hPa 0,0 l/m 0,4 km/h (0 Bft) O 86 0 min 0,000 mm 0,0 UV-I 7 W/m 10,7 C 14,7 C 1,6 km/h (1 Bft)
09.06.2013 05:30 14,7 C 77 % 1009,6 hPa 0,0 l/m 0,2 km/h (0 Bft) O-SO 103 0 min 0,000 mm 0,0 UV-I 9 W/m 10,7 C 14,7 C 3,2 km/h (1 Bft)
09.06.2013 05:35 14,7 C 77 % 1009,5 hPa 0,0 l/m 0,0 km/h (0 Bft) O-SO 103 0 min 0,000 mm 0,0 UV-I 11 W/m 10,7 C 14,7 C 0,0 km/h (0 Bft)
09.06.2013 05:40 14,5 C 78 % 1009,5 hPa 0,0 l/m 0,0 km/h (0 Bft) O-SO 103 0 min 0,000 mm 0,0 UV-I 14 W/m 10,7 C 14,5 C 1,6 km/h (1 Bft)
09.06.2013 05:45 14,4 C 78 % 1009,6 hPa 0,0 l/m 0,0 km/h (0 Bft) O-SO 103 0 min 0,000 mm 0,0 UV-I 18 W/m 10,6 C 14,4 C 0,0 km/h (0 Bft)
09.06.2013 05:50 14,3 C 79 % 1009,6 hPa 0,0 l/m 0,0 km/h (0 Bft) O-SO 103 0 min 0,000 mm 0,0 UV-I 21 W/m 10,7 C 14,3 C 0,0 km/h (0 Bft)
09.06.2013 05:55 14,3 C 79 % 1009,5 hPa 0,0 l/m 0,0 km/h (0 Bft) O-SO 103 0 min 0,000 mm 0,0 UV-I 26 W/m 10,7 C 14,3 C 0,0 km/h (0 Bft)
09.06.2013 06:00 14,2 C 79 % 1009,6 hPa 0,0 l/m 0,0 km/h (0 Bft) O-SO 103 0 min 0,000 mm 0,0 UV-I 30 W/m 10,6 C 14,2 C 0,0 km/h (0 Bft)
09.06.2013 06:05 14,2 C 79 % 1009,7 hPa 0,0 l/m 0,1 km/h (0 Bft) O-SO 103 0 min 0,000 mm 0,0 UV-I 33 W/m 10,6 C 14,2 C 1,6 km/h (1 Bft)
09.06.2013 06:10 14,3 C 79 % 1009,6 hPa 0,0 l/m 0,5 km/h (0 Bft) O 90 0 min 0,000 mm 0,0 UV-I 37 W/m 10,7 C 14,3 C 3,2 km/h (1 Bft)
09.06.2013 06:15 14,3 C 79 % 1009,5 hPa 0,0 l/m 0,2 km/h (0 Bft) N-NO 26 0 min 0,000 mm 0,0 UV-I 39 W/m 10,7 C 14,3 C 3,2 km/h (1 Bft)
09.06.2013 06:20 14,3 C 79 % 1009,5 hPa 0,0 l/m 0,2 km/h (0 Bft) N-NO 26 0 min 0,000 mm 0,0 UV-I 40 W/m 10,7 C 14,3 C 3,2 km/h (1 Bft)
09.06.2013 06:25 14,3 C 80 % 1009,5 hPa 0,0 l/m 0,0 km/h (0 Bft) N-NO 26 0 min 0,000 mm 0,0 UV-I 53 W/m 10,9 C 14,3 C 1,6 km/h (1 Bft)
09.06.2013 06:30 14,3 C 80 % 1009,4 hPa 0,0 l/m 0,0 km/h (0 Bft) N-NO 26 0 min 0,000 mm 0,0 UV-I 62 W/m 10,9 C 14,3 C 0,0 km/h (0 Bft)
09.06.2013 06:35 14,4 C 80 % 1009,5 hPa 0,0 l/m 0,3 km/h (0 Bft) N-NO 27 0 min 0,000 mm 0,0 UV-I 90 W/m 11,0 C 14,4 C 3,2 km/h (1 Bft)
09.06.2013 06:40 14,7 C 79 % 1009,5 hPa 0,0 l/m 0,7 km/h (0 Bft) N-NO 28 5 min 0,000 mm 0,0 UV-I 105 W/m 11,1 C 14,7 C 3,2 km/h (1 Bft)
09.06.2013 06:45 14,9 C 78 % 1009,5 hPa 0,0 l/m 0,6 km/h (0 Bft) N-NO 28 5 min 0,000 mm 0,0 UV-I 123 W/m 11,1 C 14,9 C 3,2 km/h (1 Bft)
09.06.2013 06:50 15,1 C 78 % 1009,5 hPa 0,0 l/m 1,1 km/h (1 Bft) NO 55 5 min 0,000 mm 0,0 UV-I 142 W/m 11,3 C 15,1 C 6,4 km/h (2 Bft)
09.06.2013 06:55 15,4 C 77 % 1009,4 hPa 0,0 l/m 1,9 km/h (1 Bft) O-NO 57 5 min 0,000 mm 0,0 UV-I 142 W/m 11,4 C 15,4 C 4,8 km/h (1 Bft)
09.06.2013 07:00 15,8 C 77 % 1009,4 hPa 0,0 l/m 2,0 km/h (1 Bft) NO 44 5 min 0,000 mm 0,0 UV-I 137 W/m 11,8 C 15,8 C 8,0 km/h (2 Bft)
09.06.2013 07:05 16,1 C 75 % 1009,4 hPa 0,0 l/m 2,2 km/h (1 Bft) O-NO 78 5 min 0,050 mm 0,0 UV-I 149 W/m 11,7 C 16,1 C 6,4 km/h (2 Bft)
09.06.2013 07:10 16,2 C 74 % 1009,4 hPa 0,0 l/m 3,1 km/h (1 Bft) O 90 5 min 0,000 mm 0,0 UV-I 162 W/m 11,6 C 16,2 C 6,4 km/h (2 Bft)
09.06.2013 07:15 16,3 C 74 % 1009,4 hPa 0,0 l/m 3,0 km/h (1 Bft) NO 55 0 min 0,000 mm 0,0 UV-I 121 W/m 11,7 C 16,3 C 6,4 km/h (2 Bft)
09.06.2013 07:20 16,5 C 74 % 1009,3 hPa 0,0 l/m 2,3 km/h (1 Bft) O-NO 63 5 min 0,000 mm 0,5 UV-I 192 W/m 11,8 C 16,5 C 6,4 km/h (2 Bft)
09.06.2013 07:25 16,6 C 73 % 1009,2 hPa 0,0 l/m 2,7 km/h (1 Bft) NO 51 5 min 0,000 mm 0,5 UV-I 207 W/m 11,7 C 16,6 C 8,0 km/h (2 Bft)
09.06.2013 07:30 16,8 C 73 % 1009,2 hPa 0,0 l/m 2,4 km/h (1 Bft) O-NO 77 0 min 0,000 mm 0,6 UV-I 158 W/m 11,9 C 16,8 C 4,8 km/h (1 Bft)
09.06.2013 07:35 16,9 C 72 % 1009,1 hPa 0,0 l/m 4,6 km/h (1 Bft) NO 54 5 min 0,000 mm 0,6 UV-I 243 W/m 11,8 C 16,9 C 11,3 km/h (2 Bft)
09.06.2013 07:40 17,1 C 71 % 1009,1 hPa 0,0 l/m 3,7 km/h (1 Bft) NO 56 5 min 0,000 mm 0,7 UV-I 260 W/m 11,8 C 17,1 C 8,0 km/h (2 Bft)
09.06.2013 07:45 17,2 C 72 % 1009,1 hPa 0,0 l/m 3,1 km/h (1 Bft) O-NO 69 5 min 0,000 mm 0,7 UV-I 278 W/m 12,1 C 17,2 C 6,4 km/h (2 Bft)
09.06.2013 07:50 17,4 C 70 % 1009,0 hPa 0,0 l/m 2,9 km/h (1 Bft) NO 51 5 min 0,000 mm 0,7 UV-I 271 W/m 11,9 C 17,4 C 6,4 km/h (2 Bft)
09.06.2013 07:55 17,6 C 70 % 1009,0 hPa 0,0 l/m 6,2 km/h (2 Bft) O-NO 64 0 min 0,000 mm 0,7 UV-I 186 W/m 12,1 C 17,6 C 12,9 km/h (3 Bft)
09.06.2013 08:00 17,6 C 70 % 1008,9 hPa 0,0 l/m 6,4 km/h (2 Bft) N-NO 30 5 min 0,000 mm 0,8 UV-I 265 W/m 12,1 C 17,6 C 14,5 km/h (3 Bft)
09.06.2013 08:05 17,6 C 70 % 1008,9 hPa 0,0 l/m 3,6 km/h (1 Bft) O 81 5 min 0,127 mm 0,9 UV-I 318 W/m 12,1 C 17,6 C 9,7 km/h (2 Bft)
09.06.2013 08:10 17,9 C 70 % 1008,9 hPa 0,0 l/m 4,3 km/h (1 Bft) NO 54 5 min 0,000 mm 1,0 UV-I 332 W/m 12,3 C 17,9 C 12,9 km/h (3 Bft)
09.06.2013 08:15 18,2 C 68 % 1008,9 hPa 0,0 l/m 3,0 km/h (1 Bft) O 101 5 min 0,000 mm 1,1 UV-I 397 W/m 12,2 C 18,2 C 11,3 km/h (2 Bft)
09.06.2013 08:20 18,3 C 69 % 1008,9 hPa 0,0 l/m 4,4 km/h (1 Bft) O-NO 71 5 min 0,000 mm 1,1 UV-I 383 W/m 12,5 C 18,3 C 11,3 km/h (2 Bft)
09.06.2013 08:25 18,6 C 67 % 1008,9 hPa 0,0 l/m 5,2 km/h (1 Bft) O-NO 64 5 min 0,000 mm 1,1 UV-I 352 W/m 12,3 C 18,6 C 11,3 km/h (2 Bft)
09.06.2013 08:30 18,6 C 67 % 1009,0 hPa 0,0 l/m 7,5 km/h (2 Bft) NO 53 5 min 0,000 mm 1,2 UV-I 346 W/m 12,3 C 18,1 C 12,9 km/h (3 Bft)
09.06.2013 08:35 18,5 C 67 % 1009,0 hPa 0,0 l/m 8,2 km/h (2 Bft) O-NO 68 5 min 0,000 mm 1,2 UV-I 288 W/m 12,3 C 17,7 C 17,7 km/h (3 Bft)
09.06.2013 08:40 18,5 C 67 % 1009,0 hPa 0,0 l/m 5,3 km/h (1 Bft) NO 51 5 min 0,000 mm 1,3 UV-I 287 W/m 12,3 C 18,5 C 12,9 km/h (3 Bft)
09.06.2013 08:45 18,6 C 66 % 1009,0 hPa 0,0 l/m 6,4 km/h (2 Bft) O-NO 57 5 min 0,000 mm 1,4 UV-I 341 W/m 12,1 C 18,6 C 16,1 km/h (3 Bft)
09.06.2013 08:50 18,7 C 67 % 1009,0 hPa 0,0 l/m 5,8 km/h (2 Bft) NO 54 0 min 0,000 mm 1,4 UV-I 230 W/m 12,4 C 18,7 C 14,5 km/h (3 Bft)
09.06.2013 08:55 18,6 C 67 % 1009,0 hPa 0,0 l/m 4,1 km/h (1 Bft) N-NO 19 5 min 0,000 mm 1,5 UV-I 355 W/m 12,3 C 18,6 C 12,9 km/h (3 Bft)
09.06.2013 09:00 18,9 C 67 % 1009,1 hPa 0,0 l/m 3,4 km/h (1 Bft) NO 48 5 min 0,000 mm 1,7 UV-I 434 W/m 12,6 C 18,9 C 8,0 km/h (2 Bft)
09.06.2013 09:05 19,3 C 65 % 1009,1 hPa 0,0 l/m 2,5 km/h (1 Bft) NO 56 5 min 0,204 mm 1,8 UV-I 455 W/m 12,6 C 19,3 C 8,0 km/h (2 Bft)
09.06.2013 09:10 19,6 C 65 % 1009,1 hPa 0,0 l/m 3,6 km/h (1 Bft) N-NO 27 5 min 0,000 mm 1,9 UV-I 475 W/m 12,8 C 19,6 C 14,5 km/h (3 Bft)
09.06.2013 09:15 19,8 C 65 % 1009,1 hPa 0,0 l/m 1,1 km/h (1 Bft) NO 46 5 min 0,000 mm 1,8 UV-I 313 W/m 13,0 C 19,8 C 4,8 km/h (1 Bft)
09.06.2013 09:20 20,1 C 63 % 1009,1 hPa 0,0 l/m 2,0 km/h (1 Bft) NO 41 0 min 0,000 mm 1,8 UV-I 302 W/m 12,8 C 20,1 C 6,4 km/h (2 Bft)
09.06.2013 09:25 20,1 C 63 % 1009,0 hPa 0,0 l/m 2,7 km/h (1 Bft) N 5 0 min 0,000 mm 1,7 UV-I 272 W/m 12,8 C 20,1 C 8,0 km/h (2 Bft)
09.06.2013 09:30 20,2 C 64 % 1009,0 hPa 0,0 l/m 0,9 km/h (0 Bft) O-NO 74 0 min 0,000 mm 1,8 UV-I 306 W/m 13,2 C 20,2 C 4,8 km/h (1 Bft)
09.06.2013 09:35 20,1 C 64 % 1009,0 hPa 0,0 l/m 0,8 km/h (0 Bft) NO 46 5 min 0,000 mm 1,9 UV-I 341 W/m 13,1 C 20,1 C 4,8 km/h (1 Bft)
09.06.2013 09:40 20,4 C 64 % 1009,0 hPa 0,0 l/m 1,3 km/h (1 Bft) NO 49 5 min 0,000 mm 2,2 UV-I 613 W/m 13,4 C 20,4 C 6,4 km/h (2 Bft)
09.06.2013 09:45 21,1 C 61 % 1009,0 hPa 0,0 l/m 2,0 km/h (1 Bft) N 360 5 min 0,000 mm 2,2 UV-I 401 W/m 13,3 C 21,1 C 6,4 km/h (2 Bft)
09.06.2013 09:50 20,9 C 59 % 1008,9 hPa 0,0 l/m 8,0 km/h (2 Bft) NO 55 0 min 0,000 mm 2,0 UV-I 339 W/m 12,6 C 20,3 C 16,1 km/h (3 Bft)
09.06.2013 09:55 20,5 C 62 % 1008,9 hPa 0,0 l/m 6,0 km/h (2 Bft) O-NO 66 5 min 0,000 mm 2,4 UV-I 482 W/m 13,0 C 20,5 C 12,9 km/h (3 Bft)
09.06.2013 10:00 20,7 C 62 % 1008,9 hPa 0,0 l/m 6,1 km/h (2 Bft) O-NO 67 5 min 0,000 mm 2,8 UV-I 657 W/m 13,2 C 20,7 C 14,5 km/h (3 Bft)
09.06.2013 10:05 21,4 C 59 % 1008,9 hPa 0,0 l/m 0,8 km/h (0 Bft) O 88 5 min 0,254 mm 2,6 UV-I 624 W/m 13,0 C 21,4 C 4,8 km/h (1 Bft)
09.06.2013 10:10 21,4 C 58 % 1009,0 hPa 0,0 l/m 2,8 km/h (1 Bft) O-SO 103 0 min 0,000 mm 1,9 UV-I 285 W/m 12,8 C 21,4 C 9,7 km/h (2 Bft)
09.06.2013 10:15 20,9 C 59 % 1009,0 hPa 0,0 l/m 6,9 km/h (2 Bft) O 90 0 min 0,000 mm 1,4 UV-I 211 W/m 12,6 C 20,7 C 14,5 km/h (3 Bft)
09.06.2013 10:20 20,2 C 62 % 1009,1 hPa 0,0 l/m 1,9 km/h (1 Bft) NO 38 0 min 0,000 mm 0,8 UV-I 118 W/m 12,7 C 20,2 C 8,0 km/h (2 Bft)
09.06.2013 10:25 19,7 C 64 % 1009,1 hPa 0,0 l/m 1,6 km/h (1 Bft) NO 52 0 min 0,000 mm 0,7 UV-I 109 W/m 12,7 C 19,7 C 6,4 km/h (2 Bft)
09.06.2013 10:30 19,4 C 65 % 1009,2 hPa 0,0 l/m 4,7 km/h (1 Bft) NO 55 0 min 0,000 mm 0,9 UV-I 153 W/m 12,6 C 19,4 C 9,7 km/h (2 Bft)
09.06.2013 10:35 19,4 C 65 % 1009,1 hPa 0,0 l/m 2,3 km/h (1 Bft) N-NO 26 0 min 0,000 mm 1,4 UV-I 246 W/m 12,6 C 19,4 C 8,0 km/h (2 Bft)
09.06.2013 10:40 20,1 C 66 % 1009,1 hPa 0,0 l/m 0,9 km/h (0 Bft) NO 46 5 min 0,000 mm 3,0 UV-I 559 W/m 13,5 C 20,1 C 4,8 km/h (1 Bft)
09.06.2013 10:45 20,0 C 64 % 1009,0 hPa 0,0 l/m 1,6 km/h (1 Bft) O 80 5 min 0,000 mm 3,1 UV-I 522 W/m 13,0 C 20,0 C 8,0 km/h (2 Bft)
09.06.2013 10:50 20,7 C 64 % 1009,0 hPa 0,0 l/m 3,0 km/h (1 Bft) NO 55 5 min 0,000 mm 2,7 UV-I 570 W/m 13,6 C 20,7 C 12,9 km/h (3 Bft)
09.06.2013 10:55 20,4 C 61 % 1008,9 hPa 0,0 l/m 6,7 km/h (2 Bft) NO 42 0 min 0,000 mm 2,3 UV-I 359 W/m 12,6 C 20,3 C 14,5 km/h (3 Bft)
09.06.2013 11:00 21,2 C 62 % 1008,8 hPa 0,0 l/m 0,8 km/h (0 Bft) N-NO 16 5 min 0,000 mm 3,6 UV-I 884 W/m 13,6 C 21,2 C 4,8 km/h (1 Bft)
09.06.2013 11:05 21,5 C 61 % 1008,9 hPa 0,0 l/m 2,1 km/h (1 Bft) NO 54 5 min 0,228 mm 3,6 UV-I 752 W/m 13,7 C 21,5 C 6,4 km/h (2 Bft)
09.06.2013 11:10 21,9 C 58 % 1008,9 hPa 0,0 l/m 4,2 km/h (1 Bft) O-NO 63 0 min 0,000 mm 2,3 UV-I 392 W/m 13,3 C 21,9 C 12,9 km/h (3 Bft)
09.06.2013 11:15 21,2 C 59 % 1008,9 hPa 0,0 l/m 8,4 km/h (2 Bft) O-NO 68 0 min 0,000 mm 1,8 UV-I 269 W/m 12,9 C 20,5 C 14,5 km/h (3 Bft)
09.06.2013 11:20 20,6 C 61 % 1009,0 hPa 0,0 l/m 6,3 km/h (2 Bft) NO 51 0 min 0,000 mm 1,4 UV-I 193 W/m 12,8 C 20,6 C 12,9 km/h (3 Bft)
09.06.2013 11:25 20,0 C 62 % 1009,1 hPa 0,0 l/m 7,4 km/h (2 Bft) O-NO 69 0 min 0,000 mm 0,8 UV-I 107 W/m 12,5 C 19,6 C 12,9 km/h (3 Bft)
09.06.2013 11:30 19,6 C 64 % 1009,2 hPa 0,0 l/m 3,7 km/h (1 Bft) O-NO 61 0 min 0,000 mm 0,7 UV-I 83 W/m 12,6 C 19,6 C 9,7 km/h (2 Bft)
09.06.2013 11:35 19,2 C 65 % 1009,2 hPa 0,0 l/m 2,5 km/h (1 Bft) O-NO 67 0 min 0,000 mm 0,7 UV-I 77 W/m 12,5 C 19,2 C 8,0 km/h (2 Bft)
09.06.2013 11:40 19,1 C 66 % 1009,2 hPa 0,0 l/m 2,6 km/h (1 Bft) NO 40 0 min 0,000 mm 0,0 UV-I 46 W/m 12,6 C 19,1 C 6,4 km/h (2 Bft)
09.06.2013 11:45 18,9 C 67 % 1009,2 hPa 0,0 l/m 0,5 km/h (0 Bft) O-NO 63 0 min 0,000 mm 0,0 UV-I 49 W/m 12,6 C 18,9 C 4,8 km/h (1 Bft)
09.06.2013 11:50 19,1 C 67 % 1009,3 hPa 0,0 l/m 0,5 km/h (0 Bft) O-NO 63 0 min 0,000 mm 0,0 UV-I 42 W/m 12,8 C 19,1 C 1,6 km/h (1 Bft)
09.06.2013 11:55 18,9 C 68 % 1009,4 hPa 0,0 l/m 1,5 km/h (1 Bft) S-SO 155 0 min 0,000 mm 0,0 UV-I 23 W/m 12,9 C 18,9 C 6,4 km/h (2 Bft)
09.06.2013 12:00 18,3 C 71 % 1009,4 hPa 0,0 l/m 4,2 km/h (1 Bft) S-SW 202 0 min 0,000 mm 0,0 UV-I 23 W/m 12,9 C 18,3 C 8,0 km/h (2 Bft)
09.06.2013 12:05 18,2 C 74 % 1009,4 hPa 0,0 l/m 1,4 km/h (1 Bft) S 188 0 min 0,102 mm 0,0 UV-I 35 W/m 13,5 C 18,2 C 3,2 km/h (1 Bft)
09.06.2013 12:10 18,1 C 75 % 1009,4 hPa 0,0 l/m 0,9 km/h (0 Bft) SO 141 0 min 0,000 mm 0,0 UV-I 33 W/m 13,6 C 18,1 C 4,8 km/h (1 Bft)
09.06.2013 12:15 17,4 C 77 % 1009,5 hPa 0,0 l/m 9,6 km/h (2 Bft) S-SO 154 0 min 0,000 mm 0,0 UV-I 37 W/m 13,3 C 15,9 C 19,3 km/h (3 Bft)
09.06.2013 12:20 16,8 C 81 % 1009,6 hPa 0,0 l/m 5,8 km/h (2 Bft) S-SW 198 0 min 0,000 mm 0,5 UV-I 58 W/m 13,5 C 16,8 C 11,3 km/h (2 Bft)
09.06.2013 12:25 16,6 C 82 % 1009,6 hPa 0,0 l/m 4,5 km/h (1 Bft) SO 146 0 min 0,000 mm 0,5 UV-I 58 W/m 13,5 C 16,6 C 11,3 km/h (2 Bft)
09.06.2013 12:30 16,2 C 84 % 1009,5 hPa 0,0 l/m 2,3 km/h (1 Bft) O 82 0 min 0,000 mm 0,8 UV-I 90 W/m 13,5 C 16,2 C 11,3 km/h (2 Bft)
09.06.2013 12:35 16,2 C 84 % 1009,4 hPa 0,0 l/m 0,4 km/h (0 Bft) N-NW 331 0 min 0,000 mm 0,8 UV-I 104 W/m 13,5 C 16,2 C 3,2 km/h (1 Bft)
09.06.2013 12:40 16,3 C 85 % 1009,3 hPa 0,0 l/m 1,3 km/h (1 Bft) W-NW 299 0 min 0,000 mm 1,0 UV-I 128 W/m 13,8 C 16,3 C 4,8 km/h (1 Bft)
09.06.2013 12:45 16,4 C 85 % 1009,1 hPa 0,0 l/m 2,2 km/h (1 Bft) W-NW 302 0 min 0,000 mm 1,0 UV-I 135 W/m 13,9 C 16,4 C 4,8 km/h (1 Bft)
09.06.2013 12:50 16,3 C 85 % 1009,1 hPa 0,0 l/m 1,9 km/h (1 Bft) W-NW 297 0 min 0,000 mm 1,0 UV-I 132 W/m 13,8 C 16,3 C 4,8 km/h (1 Bft)
09.06.2013 12:55 16,4 C 87 % 1009,1 hPa 0,2 l/m 0,1 km/h (0 Bft) W-NW 297 0 min 0,000 mm 1,1 UV-I 141 W/m 14,2 C 16,4 C 1,6 km/h (1 Bft)
09.06.2013 13:00 16,4 C 86 % 1009,0 hPa 0,0 l/m 0,7 km/h (0 Bft) W-NW 297 0 min 0,000 mm 1,3 UV-I 176 W/m 14,1 C 16,4 C 4,8 km/h (1 Bft)
09.06.2013 13:05 16,6 C 87 % 1008,9 hPa 0,0 l/m 0,0 km/h (0 Bft) W-NW 297 0 min 0,051 mm 1,5 UV-I 207 W/m 14,4 C 16,6 C 0,0 km/h (0 Bft)
09.06.2013 13:10 16,8 C 87 % 1008,9 hPa 0,0 l/m 0,2 km/h (0 Bft) W-NW 297 0 min 0,000 mm 1,7 UV-I 232 W/m 14,6 C 16,8 C 1,6 km/h (1 Bft)
09.06.2013 13:15 16,9 C 86 % 1008,9 hPa 0,2 l/m 0,1 km/h (0 Bft) W-NW 297 0 min 0,000 mm 1,6 UV-I 225 W/m 14,5 C 16,9 C 1,6 km/h (1 Bft)
09.06.2013 13:20 17,1 C 86 % 1008,9 hPa 0,0 l/m 0,1 km/h (0 Bft) W-NW 297 0 min 0,000 mm 1,5 UV-I 207 W/m 14,7 C 17,1 C 1,6 km/h (1 Bft)
09.06.2013 13:25 17,2 C 85 % 1008,9 hPa 0,0 l/m 0,1 km/h (0 Bft) NO 46 0 min 0,000 mm 1,3 UV-I 192 W/m 14,7 C 17,2 C 3,2 km/h (1 Bft)
09.06.2013 13:30 17,2 C 84 % 1008,8 hPa 0,0 l/m 0,4 km/h (0 Bft) O 84 0 min 0,000 mm 1,4 UV-I 199 W/m 14,5 C 17,2 C 3,2 km/h (1 Bft)
09.06.2013 13:35 17,2 C 85 % 1008,7 hPa 0,0 l/m 0,0 km/h (0 Bft) O 85 0 min 0,000 mm 1,5 UV-I 207 W/m 14,7 C 17,2 C 1,6 km/h (1 Bft)
09.06.2013 13:40 17,3 C 85 % 1008,7 hPa 0,0 l/m 0,0 km/h (0 Bft) O 85 0 min 0,000 mm 1,3 UV-I 181 W/m 14,8 C 17,3 C 1,6 km/h (1 Bft)
09.06.2013 13:45 17,4 C 84 % 1008,6 hPa 0,0 l/m 0,0 km/h (0 Bft) O 85 0 min 0,000 mm 1,1 UV-I 151 W/m 14,7 C 17,4 C 1,6 km/h (1 Bft)
09.06.2013 13:50 17,3 C 84 % 1008,7 hPa 0,0 l/m 1,3 km/h (1 Bft) O-SO 103 0 min 0,000 mm 0,8 UV-I 107 W/m 14,6 C 17,3 C 4,8 km/h (1 Bft)
09.06.2013 13:55 17,1 C 85 % 1008,6 hPa 0,0 l/m 4,5 km/h (1 Bft) O 82 0 min 0,000 mm 1,0 UV-I 130 W/m 14,6 C 17,1 C 9,7 km/h (2 Bft)
09.06.2013 14:00 16,9 C 85 % 1008,6 hPa 0,0 l/m 5,3 km/h (1 Bft) O-NO 71 0 min 0,000 mm 1,2 UV-I 155 W/m 14,4 C 16,9 C 11,3 km/h (2 Bft)
09.06.2013 14:05 16,8 C 85 % 1008,6 hPa 0,0 l/m 6,6 km/h (2 Bft) O-NO 74 0 min 0,101 mm 1,7 UV-I 213 W/m 14,3 C 16,7 C 11,3 km/h (2 Bft)
09.06.2013 14:10 16,8 C 85 % 1008,5 hPa 0,0 l/m 5,7 km/h (1 Bft) NO 51 0 min 0,000 mm 2,3 UV-I 302 W/m 14,3 C 16,8 C 11,3 km/h (2 Bft)
09.06.2013 14:15 16,9 C 85 % 1008,6 hPa 0,0 l/m 3,2 km/h (1 Bft) O-NO 59 0 min 0,000 mm 2,4 UV-I 329 W/m 14,4 C 16,9 C 11,3 km/h (2 Bft)
09.06.2013 14:20 17,1 C 83 % 1008,6 hPa 0,0 l/m 3,7 km/h (1 Bft) O-NO 68 0 min 0,000 mm 2,3 UV-I 322 W/m 14,2 C 17,1 C 8,0 km/h (2 Bft)
09.06.2013 14:25 17,3 C 83 % 1008,6 hPa 0,0 l/m 2,0 km/h (1 Bft) O-NO 67 0 min 0,000 mm 1,9 UV-I 274 W/m 14,4 C 17,3 C 6,4 km/h (2 Bft)
09.06.2013 14:30 17,4 C 83 % 1008,6 hPa 0,0 l/m 3,8 km/h (1 Bft) O 96 0 min 0,000 mm 1,3 UV-I 185 W/m 14,5 C 17,4 C 9,7 km/h (2 Bft)
09.06.2013 14:35 17,1 C 83 % 1008,6 hPa 0,0 l/m 6,6 km/h (2 Bft) NO 56 0 min 0,000 mm 1,3 UV-I 178 W/m 14,2 C 17,0 C 11,3 km/h (2 Bft)
09.06.2013 14:40 16,9 C 84 % 1008,6 hPa 0,0 l/m 5,2 km/h (1 Bft) O 98 0 min 0,000 mm 1,2 UV-I 169 W/m 14,2 C 16,9 C 11,3 km/h (2 Bft)
09.06.2013 14:45 16,8 C 85 % 1008,6 hPa 0,0 l/m 4,8 km/h (1 Bft) O 90 0 min 0,000 mm 1,3 UV-I 192 W/m 14,3 C 16,8 C 11,3 km/h (2 Bft)
09.06.2013 14:50 16,9 C 86 % 1008,5 hPa 0,0 l/m 4,9 km/h (1 Bft) O-NO 59 0 min 0,000 mm 1,5 UV-I 220 W/m 14,5 C 16,9 C 9,7 km/h (2 Bft)
09.06.2013 14:55 16,9 C 86 % 1008,4 hPa 0,2 l/m 3,7 km/h (1 Bft) O-NO 76 0 min 0,000 mm 1,5 UV-I 216 W/m 14,5 C 16,9 C 9,7 km/h (2 Bft)
09.06.2013 15:00 16,9 C 85 % 1008,4 hPa 0,0 l/m 5,3 km/h (1 Bft) NO 56 0 min 0,000 mm 1,3 UV-I 188 W/m 14,4 C 16,9 C 12,9 km/h (3 Bft)
09.06.2013 15:05 16,9 C 86 % 1008,4 hPa 0,0 l/m 4,1 km/h (1 Bft) NO 55 0 min 0,127 mm 1,2 UV-I 169 W/m 14,5 C 16,9 C 11,3 km/h (2 Bft)
09.06.2013 15:10 16,9 C 86 % 1008,5 hPa 0,0 l/m 2,4 km/h (1 Bft) NO 41 0 min 0,000 mm 1,1 UV-I 158 W/m 14,5 C 16,9 C 6,4 km/h (2 Bft)
09.06.2013 15:15 16,9 C 85 % 1008,5 hPa 0,0 l/m 3,2 km/h (1 Bft) NO 53 0 min 0,000 mm 1,0 UV-I 149 W/m 14,4 C 16,9 C 8,0 km/h (2 Bft)
09.06.2013 15:20 16,9 C 84 % 1008,5 hPa 0,0 l/m 5,1 km/h (1 Bft) O-NO 61 0 min 0,000 mm 0,9 UV-I 142 W/m 14,2 C 16,9 C 14,5 km/h (3 Bft)
09.06.2013 15:25 16,8 C 84 % 1008,5 hPa 0,0 l/m 5,2 km/h (1 Bft) NO 52 0 min 0,000 mm 0,9 UV-I 127 W/m 14,1 C 16,8 C 11,3 km/h (2 Bft)
09.06.2013 15:30 16,7 C 84 % 1008,6 hPa 0,0 l/m 5,1 km/h (1 Bft) O-NO 62 0 min 0,000 mm 0,8 UV-I 114 W/m 14,0 C 16,7 C 11,3 km/h (2 Bft)
09.06.2013 15:35 16,7 C 85 % 1008,6 hPa 0,0 l/m 3,8 km/h (1 Bft) NO 54 0 min 0,000 mm 0,7 UV-I 102 W/m 14,2 C 16,7 C 6,4 km/h (2 Bft)
09.06.2013 15:40 16,7 C 85 % 1008,7 hPa 0,0 l/m 2,0 km/h (1 Bft) NO 47 0 min 0,000 mm 0,7 UV-I 105 W/m 14,2 C 16,7 C 6,4 km/h (2 Bft)
09.06.2013 15:45 16,6 C 85 % 1008,7 hPa 0,0 l/m 4,1 km/h (1 Bft) O 88 0 min 0,000 mm 0,7 UV-I 97 W/m 14,1 C 16,6 C 11,3 km/h (2 Bft)
09.06.2013 15:50 16,4 C 86 % 1008,7 hPa 0,0 l/m 4,9 km/h (1 Bft) NO 51 0 min 0,000 mm 0,7 UV-I 105 W/m 14,1 C 16,4 C 9,7 km/h (2 Bft)
09.06.2013 15:55 16,4 C 86 % 1008,6 hPa 0,0 l/m 4,6 km/h (1 Bft) O-NO 59 0 min 0,000 mm 0,8 UV-I 120 W/m 14,1 C 16,4 C 9,7 km/h (2 Bft)
09.06.2013 16:00 16,4 C 87 % 1008,6 hPa 0,0 l/m 3,2 km/h (1 Bft) O-NO 59 0 min 0,000 mm 0,8 UV-I 120 W/m 14,2 C 16,4 C 9,7 km/h (2 Bft)
09.06.2013 16:05 16,4 C 87 % 1008,6 hPa 0,0 l/m 3,2 km/h (1 Bft) NO 56 0 min 0,076 mm 0,6 UV-I 88 W/m 14,2 C 16,4 C 6,4 km/h (2 Bft)
09.06.2013 16:10 16,3 C 87 % 1008,6 hPa 0,0 l/m 2,6 km/h (1 Bft) O-SO 104 0 min 0,000 mm 0,5 UV-I 74 W/m 14,1 C 16,3 C 8,0 km/h (2 Bft)
09.06.2013 16:15 16,3 C 88 % 1008,6 hPa 0,0 l/m 1,4 km/h (1 Bft) O 80 0 min 0,000 mm 0,0 UV-I 53 W/m 14,3 C 16,3 C 8,0 km/h (2 Bft)
09.06.2013 16:20 16,4 C 88 % 1008,6 hPa 0,0 l/m 0,7 km/h (0 Bft) O 80 0 min 0,000 mm 0,0 UV-I 49 W/m 14,4 C 16,4 C 3,2 km/h (1 Bft)
09.06.2013 16:25 16,4 C 88 % 1008,5 hPa 0,0 l/m 2,4 km/h (1 Bft) NO 44 0 min 0,000 mm 0,0 UV-I 37 W/m 14,4 C 16,4 C 6,4 km/h (2 Bft)
09.06.2013 16:30 16,3 C 88 % 1008,5 hPa 0,0 l/m 3,4 km/h (1 Bft) O-NO 61 0 min 0,000 mm 0,0 UV-I 49 W/m 14,3 C 16,3 C 9,7 km/h (2 Bft)
09.06.2013 16:35 16,2 C 88 % 1008,4 hPa 0,0 l/m 1,9 km/h (1 Bft) O 85 0 min 0,000 mm 0,0 UV-I 72 W/m 14,2 C 16,2 C 4,8 km/h (1 Bft)
09.06.2013 16:40 16,1 C 88 % 1008,3 hPa 0,0 l/m 2,1 km/h (1 Bft) O-SO 113 0 min 0,000 mm 0,6 UV-I 95 W/m 14,1 C 16,1 C 4,8 km/h (1 Bft)
09.06.2013 16:45 16,1 C 89 % 1008,3 hPa 0,0 l/m 1,9 km/h (1 Bft) O-NO 59 0 min 0,000 mm 0,6 UV-I 98 W/m 14,3 C 16,1 C 4,8 km/h (1 Bft)
09.06.2013 16:50 16,0 C 89 % 1008,3 hPa 0,0 l/m 2,2 km/h (1 Bft) O-NO 63 0 min 0,000 mm 0,6 UV-I 91 W/m 14,2 C 16,0 C 6,4 km/h (2 Bft)
09.06.2013 16:55 16,0 C 89 % 1008,3 hPa 0,0 l/m 1,6 km/h (1 Bft) NO 51 0 min 0,000 mm 0,6 UV-I 93 W/m 14,2 C 16,0 C 6,4 km/h (2 Bft)
09.06.2013 17:00 15,9 C 88 % 1008,3 hPa 0,2 l/m 1,6 km/h (1 Bft) O-SO 121 0 min 0,000 mm 0,7 UV-I 113 W/m 13,9 C 15,9 C 4,8 km/h (1 Bft)
09.06.2013 17:05 15,9 C 89 % 1008,3 hPa 0,0 l/m 0,6 km/h (0 Bft) O-SO 121 0 min 0,051 mm 0,7 UV-I 121 W/m 14,1 C 15,9 C 3,2 km/h (1 Bft)
09.06.2013 17:10 15,9 C 89 % 1008,2 hPa 0,0 l/m 0,5 km/h (0 Bft) O-SO 123 0 min 0,000 mm 0,8 UV-I 137 W/m 14,1 C 15,9 C 3,2 km/h (1 Bft)
09.06.2013 17:15 16,1 C 89 % 1008,1 hPa 0,0 l/m 0,1 km/h (0 Bft) O-SO 123 0 min 0,000 mm 0,8 UV-I 148 W/m 14,3 C 16,1 C 1,6 km/h (1 Bft)
09.06.2013 17:20 16,2 C 89 % 1008,1 hPa 0,0 l/m 0,4 km/h (0 Bft) O-SO 123 0 min 0,000 mm 0,8 UV-I 156 W/m 14,4 C 16,2 C 3,2 km/h (1 Bft)
09.06.2013 17:25 16,2 C 89 % 1008,0 hPa 0,0 l/m 0,0 km/h (0 Bft) O-SO 123 0 min 0,000 mm 0,9 UV-I 169 W/m 14,4 C 16,2 C 1,6 km/h (1 Bft)
09.06.2013 17:30 16,4 C 90 % 1008,0 hPa 0,0 l/m 0,1 km/h (0 Bft) O-SO 123 0 min 0,000 mm 0,9 UV-I 181 W/m 14,8 C 16,4 C 1,6 km/h (1 Bft)
09.06.2013 17:35 16,6 C 89 % 1007,9 hPa 0,0 l/m 0,0 km/h (0 Bft) O-SO 123 0 min 0,000 mm 0,9 UV-I 185 W/m 14,8 C 16,6 C 0,0 km/h (0 Bft)
09.06.2013 17:40 16,8 C 88 % 1007,9 hPa 0,0 l/m 0,0 km/h (0 Bft) O-SO 123 0 min 0,000 mm 0,9 UV-I 179 W/m 14,8 C 16,8 C 0,0 km/h (0 Bft)
09.06.2013 17:45 17,0 C 87 % 1007,8 hPa 0,0 l/m 0,0 km/h (0 Bft) O-SO 123 0 min 0,000 mm 0,9 UV-I 176 W/m 14,8 C 17,0 C 0,0 km/h (0 Bft)
09.06.2013 17:50 17,2 C 87 % 1007,7 hPa 0,0 l/m 0,0 km/h (0 Bft) O-SO 123 0 min 0,000 mm 0,8 UV-I 163 W/m 15,0 C 17,2 C 1,6 km/h (1 Bft)
09.06.2013 17:55 17,3 C 86 % 1007,8 hPa 0,0 l/m 0,1 km/h (0 Bft) S-SO 148 0 min 0,000 mm 0,8 UV-I 165 W/m 14,9 C 17,3 C 3,2 km/h (1 Bft)
09.06.2013 18:00 17,3 C 84 % 1007,7 hPa 0,0 l/m 0,4 km/h (0 Bft) SW 217 0 min 0,000 mm 0,8 UV-I 167 W/m 14,6 C 17,3 C 3,2 km/h (1 Bft)
09.06.2013 18:05 17,2 C 85 % 1007,7 hPa 0,0 l/m 0,9 km/h (0 Bft) SW 220 0 min 0,102 mm 0,8 UV-I 169 W/m 14,7 C 17,2 C 4,8 km/h (1 Bft)
09.06.2013 18:10 17,0 C 87 % 1007,6 hPa 0,0 l/m 1,0 km/h (0 Bft) W-SW 251 0 min 0,000 mm 0,8 UV-I 172 W/m 14,8 C 17,0 C 4,8 km/h (1 Bft)
09.06.2013 18:15 17,0 C 87 % 1007,6 hPa 0,0 l/m 1,3 km/h (1 Bft) SW 229 0 min 0,000 mm 0,8 UV-I 169 W/m 14,8 C 17,0 C 4,8 km/h (1 Bft)
09.06.2013 18:20 17,0 C 86 % 1007,6 hPa 0,0 l/m 2,6 km/h (1 Bft) W-NW 298 0 min 0,000 mm 0,8 UV-I 172 W/m 14,6 C 17,0 C 4,8 km/h (1 Bft)
09.06.2013 18:25 17,0 C 86 % 1007,5 hPa 0,0 l/m 2,5 km/h (1 Bft) NW 308 0 min 0,000 mm 0,7 UV-I 174 W/m 14,6 C 17,0 C 6,4 km/h (2 Bft)
09.06.2013 18:30 17,0 C 86 % 1007,5 hPa 0,0 l/m 1,6 km/h (1 Bft) NW 308 0 min 0,000 mm 0,7 UV-I 171 W/m 14,6 C 17,0 C 4,8 km/h (1 Bft)
09.06.2013 18:35 17,1 C 85 % 1007,5 hPa 0,0 l/m 1,6 km/h (1 Bft) NW 308 0 min 0,000 mm 0,7 UV-I 163 W/m 14,6 C 17,1 C 4,8 km/h (1 Bft)
09.06.2013 18:40 17,1 C 86 % 1007,5 hPa 0,0 l/m 2,8 km/h (1 Bft) W-NW 296 0 min 0,000 mm 0,6 UV-I 156 W/m 14,7 C 17,1 C 6,4 km/h (2 Bft)
09.06.2013 18:45 17,1 C 86 % 1007,4 hPa 0,0 l/m 1,1 km/h (1 Bft) W-NW 296 0 min 0,000 mm 0,6 UV-I 153 W/m 14,7 C 17,1 C 4,8 km/h (1 Bft)
09.06.2013 18:50 17,2 C 87 % 1007,3 hPa 0,0 l/m 1,5 km/h (1 Bft) N-NW 331 0 min 0,000 mm 0,6 UV-I 151 W/m 15,0 C 17,2 C 4,8 km/h (1 Bft)
09.06.2013 18:55 17,2 C 87 % 1007,4 hPa 0,0 l/m 0,9 km/h (0 Bft) N-NW 327 0 min 0,000 mm 0,5 UV-I 148 W/m 15,0 C 17,2 C 4,8 km/h (1 Bft)
09.06.2013 19:00 17,3 C 86 % 1007,5 hPa 0,0 l/m 0,4 km/h (0 Bft) N-NW 327 0 min 0,000 mm 0,5 UV-I 146 W/m 14,9 C 17,3 C 4,8 km/h (1 Bft)
09.06.2013 19:05 17,4 C 86 % 1007,5 hPa 0,0 l/m 0,1 km/h (0 Bft) N-NW 327 0 min 0,101 mm 0,5 UV-I 146 W/m 15,0 C 17,4 C 3,2 km/h (1 Bft)
09.06.2013 19:10 17,4 C 84 % 1007,5 hPa 0,0 l/m 0,3 km/h (0 Bft) N-NW 327 0 min 0,000 mm 0,5 UV-I 141 W/m 14,7 C 17,4 C 3,2 km/h (1 Bft)
09.06.2013 19:15 17,4 C 85 % 1007,5 hPa 0,0 l/m 0,2 km/h (0 Bft) N-NW 327 0 min 0,000 mm 0,0 UV-I 128 W/m 14,8 C 17,4 C 3,2 km/h (1 Bft)
09.06.2013 19:20 17,4 C 85 % 1007,6 hPa 0,0 l/m 1,5 km/h (1 Bft) W-NW 288 0 min 0,000 mm 0,0 UV-I 111 W/m 14,8 C 17,4 C 6,4 km/h (2 Bft)
09.06.2013 19:25 17,3 C 85 % 1007,7 hPa 0,0 l/m 2,0 km/h (1 Bft) W-NW 288 0 min 0,000 mm 0,0 UV-I 109 W/m 14,8 C 17,3 C 4,8 km/h (1 Bft)
09.06.2013 19:30 17,3 C 85 % 1007,7 hPa 0,0 l/m 1,8 km/h (1 Bft) W-NW 291 0 min 0,000 mm 0,0 UV-I 100 W/m 14,8 C 17,3 C 4,8 km/h (1 Bft)
09.06.2013 19:35 17,2 C 85 % 1007,7 hPa 0,0 l/m 1,0 km/h (0 Bft) W-NW 292 0 min 0,000 mm 0,0 UV-I 88 W/m 14,7 C 17,2 C 3,2 km/h (1 Bft)
09.06.2013 19:40 17,2 C 86 % 1007,7 hPa 0,0 l/m 0,9 km/h (0 Bft) W-NW 292 0 min 0,000 mm 0,0 UV-I 76 W/m 14,8 C 17,2 C 3,2 km/h (1 Bft)
09.06.2013 19:45 17,1 C 87 % 1007,7 hPa 0,0 l/m 1,9 km/h (1 Bft) W-SW 253 0 min 0,000 mm 0,0 UV-I 63 W/m 14,9 C 17,1 C 4,8 km/h (1 Bft)
09.06.2013 19:50 16,9 C 87 % 1007,8 hPa 0,0 l/m 3,6 km/h (1 Bft) SW 219 0 min 0,000 mm 0,0 UV-I 49 W/m 14,7 C 16,9 C 8,0 km/h (2 Bft)
09.06.2013 19:55 16,7 C 88 % 1007,8 hPa 0,0 l/m 4,3 km/h (1 Bft) W-NW 300 0 min 0,000 mm 0,0 UV-I 39 W/m 14,7 C 16,7 C 8,0 km/h (2 Bft)
09.06.2013 20:00 16,6 C 88 % 1007,7 hPa 0,0 l/m 4,8 km/h (1 Bft) W-NW 286 0 min 0,000 mm 0,0 UV-I 28 W/m 14,6 C 16,6 C 8,0 km/h (2 Bft)
09.06.2013 20:05 16,6 C 88 % 1007,7 hPa 0,0 l/m 3,5 km/h (1 Bft) W-NW 282 0 min 0,051 mm 0,0 UV-I 14 W/m 14,6 C 16,6 C 9,7 km/h (2 Bft)
09.06.2013 20:10 16,5 C 88 % 1007,8 hPa 0,0 l/m 1,0 km/h (0 Bft) N-NW 342 0 min 0,000 mm 0,0 UV-I 5 W/m 14,5 C 16,5 C 4,8 km/h (1 Bft)
09.06.2013 20:15 16,5 C 89 % 1007,8 hPa 0,0 l/m 1,3 km/h (1 Bft) N-NO 29 0 min 0,000 mm 0,0 UV-I 0 W/m 14,7 C 16,5 C 3,2 km/h (1 Bft)
09.06.2013 20:20 16,5 C 89 % 1007,8 hPa 0,0 l/m 0,2 km/h (0 Bft) N-NO 29 0 min 0,000 mm 0,0 UV-I 0 W/m 14,7 C 16,5 C 3,2 km/h (1 Bft)
09.06.2013 20:25 16,4 C 88 % 1007,8 hPa 0,0 l/m 0,3 km/h (0 Bft) O-NO 65 0 min 0,000 mm 0,0 UV-I 0 W/m 14,4 C 16,4 C 3,2 km/h (1 Bft)
09.06.2013 20:30 16,3 C 87 % 1007,8 hPa 0,0 l/m 2,3 km/h (1 Bft) NO 56 0 min 0,000 mm 0,0 UV-I 5 W/m 14,1 C 16,3 C 8,0 km/h (2 Bft)
09.06.2013 20:35 16,2 C 86 % 1007,9 hPa 0,0 l/m 1,2 km/h (1 Bft) O-NO 62 0 min 0,000 mm 0,0 UV-I 5 W/m 13,9 C 16,2 C 8,0 km/h (2 Bft)
09.06.2013 20:40 16,2 C 86 % 1008,0 hPa 0,0 l/m 0,0 km/h (0 Bft) O-NO 62 0 min 0,000 mm 0,0 UV-I 5 W/m 13,9 C 16,2 C 1,6 km/h (1 Bft)
09.06.2013 20:45 16,1 C 85 % 1008,0 hPa 0,0 l/m 0,7 km/h (0 Bft) O-NO 60 0 min 0,000 mm 0,0 UV-I 5 W/m 13,6 C 16,1 C 6,4 km/h (2 Bft)
09.06.2013 20:50 15,9 C 85 % 1008,1 hPa 0,0 l/m 0,2 km/h (0 Bft) O-NO 60 0 min 0,000 mm 0,0 UV-I 0 W/m 13,4 C 15,9 C 3,2 km/h (1 Bft)
09.06.2013 20:55 15,8 C 86 % 1008,0 hPa 0,0 l/m 0,1 km/h (0 Bft) O-NO 60 0 min 0,000 mm 0,0 UV-I 0 W/m 13,5 C 15,8 C 1,6 km/h (1 Bft)
09.06.2013 21:00 15,8 C 86 % 1008,0 hPa 0,0 l/m 0,2 km/h (0 Bft) N 350 0 min 0,000 mm 0,0 UV-I 0 W/m 13,5 C 15,8 C 3,2 km/h (1 Bft)
09.06.2013 21:05 15,7 C 86 % 1008,1 hPa 0,0 l/m 0,1 km/h (0 Bft) N 350 0 min 0,000 mm 0,0 UV-I 0 W/m 13,4 C 15,7 C 1,6 km/h (1 Bft)
09.06.2013 21:10 15,4 C 87 % 1008,2 hPa 0,0 l/m 0,1 km/h (0 Bft) N 355 0 min 0,000 mm 0,0 UV-I 0 W/m 13,2 C 15,4 C 1,6 km/h (1 Bft)
09.06.2013 21:15 15,3 C 87 % 1008,3 hPa 0,0 l/m 0,1 km/h (0 Bft) N 355 0 min 0,000 mm 0,0 UV-I 0 W/m 13,1 C 15,3 C 1,6 km/h (1 Bft)
09.06.2013 21:20 15,2 C 87 % 1008,3 hPa 0,0 l/m 0,0 km/h (0 Bft) N 355 0 min 0,000 mm 0,0 UV-I 0 W/m 13,0 C 15,2 C 1,6 km/h (1 Bft)
09.06.2013 21:25 15,1 C 88 % 1008,4 hPa 0,0 l/m 0,1 km/h (0 Bft) N 355 0 min 0,000 mm 0,0 UV-I 0 W/m 13,1 C 15,1 C 1,6 km/h (1 Bft)
09.06.2013 21:30 15,1 C 88 % 1008,5 hPa 0,0 l/m 0,0 km/h (0 Bft) N 355 0 min 0,000 mm 0,0 UV-I 0 W/m 13,1 C 15,1 C 0,0 km/h (0 Bft)
09.06.2013 21:35 15,1 C 88 % 1008,5 hPa 0,0 l/m 0,0 km/h (0 Bft) N 355 0 min 0,000 mm 0,0 UV-I 0 W/m 13,1 C 15,1 C 0,0 km/h (0 Bft)
09.06.2013 21:40 15,1 C 88 % 1008,5 hPa 0,0 l/m 0,0 km/h (0 Bft) N 355 0 min 0,000 mm 0,0 UV-I 0 W/m 13,1 C 15,1 C 0,0 km/h (0 Bft)
09.06.2013 21:45 15,1 C 88 % 1008,5 hPa 0,0 l/m 0,0 km/h (0 Bft) N 355 0 min 0,000 mm 0,0 UV-I 0 W/m 13,1 C 15,1 C 0,0 km/h (0 Bft)
09.06.2013 21:50 15,1 C 88 % 1008,6 hPa 0,0 l/m 0,0 km/h (0 Bft) N 355 0 min 0,000 mm 0,0 UV-I 0 W/m 13,1 C 15,1 C 0,0 km/h (0 Bft)
09.06.2013 21:55 15,1 C 88 % 1008,6 hPa 0,0 l/m 0,0 km/h (0 Bft) N 355 0 min 0,000 mm 0,0 UV-I 0 W/m 13,1 C 15,1 C 0,0 km/h (0 Bft)
09.06.2013 22:00 15,1 C 89 % 1008,6 hPa 0,0 l/m 0,0 km/h (0 Bft) N 355 0 min 0,000 mm 0,0 UV-I 0 W/m 13,3 C 15,1 C 0,0 km/h (0 Bft)
09.06.2013 22:05 15,1 C 89 % 1008,5 hPa 0,0 l/m 0,0 km/h (0 Bft) N 355 0 min 0,000 mm 0,0 UV-I 0 W/m 13,3 C 15,1 C 0,0 km/h (0 Bft)
09.06.2013 22:10 15,1 C 89 % 1008,6 hPa 0,0 l/m 0,0 km/h (0 Bft) N 355 0 min 0,000 mm 0,0 UV-I 0 W/m 13,3 C 15,1 C 0,0 km/h (0 Bft)
09.06.2013 22:15 15,0 C 89 % 1008,6 hPa 0,0 l/m 0,0 km/h (0 Bft) N 355 0 min 0,000 mm 0,0 UV-I 0 W/m 13,2 C 15,0 C 0,0 km/h (0 Bft)
09.06.2013 22:20 14,9 C 89 % 1008,5 hPa 0,0 l/m 0,0 km/h (0 Bft) N 355 0 min 0,000 mm 0,0 UV-I 0 W/m 13,1 C 14,9 C 0,0 km/h (0 Bft)
09.06.2013 22:25 14,9 C 90 % 1008,5 hPa 0,0 l/m 0,0 km/h (0 Bft) N 355 0 min 0,000 mm 0,0 UV-I 0 W/m 13,3 C 14,9 C 1,6 km/h (1 Bft)
09.06.2013 22:30 14,9 C 90 % 1008,5 hPa 0,0 l/m 0,0 km/h (0 Bft) N 355 0 min 0,000 mm 0,0 UV-I 0 W/m 13,3 C 14,9 C 0,0 km/h (0 Bft)
09.06.2013 22:35 14,8 C 90 % 1008,4 hPa 0,0 l/m 0,0 km/h (0 Bft) N 355 0 min 0,000 mm 0,0 UV-I 0 W/m 13,2 C 14,8 C 0,0 km/h (0 Bft)
09.06.2013 22:40 14,8 C 90 % 1008,3 hPa 0,0 l/m 0,0 km/h (0 Bft) N 355 0 min 0,000 mm 0,0 UV-I 0 W/m 13,2 C 14,8 C 0,0 km/h (0 Bft)
09.06.2013 22:45 14,7 C 90 % 1008,3 hPa 0,0 l/m 0,0 km/h (0 Bft) N 355 0 min 0,000 mm 0,0 UV-I 0 W/m 13,1 C 14,7 C 0,0 km/h (0 Bft)
09.06.2013 22:50 14,7 C 90 % 1008,3 hPa 0,0 l/m 0,1 km/h (0 Bft) NW 317 0 min 0,000 mm 0,0 UV-I 0 W/m 13,1 C 14,7 C 1,6 km/h (1 Bft)
09.06.2013 22:55 14,6 C 91 % 1008,3 hPa 0,0 l/m 0,5 km/h (0 Bft) W-SW 253 0 min 0,000 mm 0,0 UV-I 0 W/m 13,1 C 14,6 C 4,8 km/h (1 Bft)
09.06.2013 23:00 14,4 C 92 % 1008,3 hPa 0,0 l/m 1,4 km/h (1 Bft) W-SW 252 0 min 0,000 mm 0,0 UV-I 0 W/m 13,1 C 14,4 C 4,8 km/h (1 Bft)
09.06.2013 23:05 14,4 C 92 % 1008,3 hPa 0,0 l/m 1,2 km/h (1 Bft) W 267 0 min 0,000 mm 0,0 UV-I 0 W/m 13,1 C 14,4 C 4,8 km/h (1 Bft)
09.06.2013 23:10 14,3 C 92 % 1008,4 hPa 0,0 l/m 0,9 km/h (0 Bft) W 267 0 min 0,000 mm 0,0 UV-I 0 W/m 13,0 C 14,3 C 3,2 km/h (1 Bft)
09.06.2013 23:15 14,3 C 93 % 1008,4 hPa 0,0 l/m 0,2 km/h (0 Bft) W 267 0 min 0,000 mm 0,0 UV-I 0 W/m 13,2 C 14,3 C 3,2 km/h (1 Bft)
09.06.2013 23:20 14,3 C 92 % 1008,5 hPa 0,0 l/m 0,0 km/h (0 Bft) W 267 0 min 0,000 mm 0,0 UV-I 0 W/m 13,0 C 14,3 C 0,0 km/h (0 Bft)
09.06.2013 23:25 14,3 C 92 % 1008,5 hPa 0,0 l/m 0,0 km/h (0 Bft) W 267 0 min 0,000 mm 0,0 UV-I 0 W/m 13,0 C 14,3 C 0,0 km/h (0 Bft)
09.06.2013 23:30 14,3 C 92 % 1008,4 hPa 0,0 l/m 0,1 km/h (0 Bft) W 267 0 min 0,000 mm 0,0 UV-I 0 W/m 13,0 C 14,3 C 1,6 km/h (1 Bft)
09.06.2013 23:35 14,3 C 93 % 1008,5 hPa 0,0 l/m 0,0 km/h (0 Bft) W 267 0 min 0,000 mm 0,0 UV-I 0 W/m 13,2 C 14,3 C 0,0 km/h (0 Bft)
09.06.2013 23:40 14,3 C 93 % 1008,4 hPa 0,0 l/m 0,0 km/h (0 Bft) W 267 0 min 0,000 mm 0,0 UV-I 0 W/m 13,2 C 14,3 C 0,0 km/h (0 Bft)
09.06.2013 23:45 14,3 C 92 % 1008,4 hPa 0,0 l/m 0,0 km/h (0 Bft) W 267 0 min 0,000 mm 0,0 UV-I 0 W/m 13,0 C 14,3 C 0,0 km/h (0 Bft)
09.06.2013 23:50 14,2 C 92 % 1008,4 hPa 0,0 l/m 0,0 km/h (0 Bft) W 267 0 min 0,000 mm 0,0 UV-I 0 W/m 12,9 C 14,2 C 0,0 km/h (0 Bft)
09.06.2013 23:55 14,2 C 92 % 1008,4 hPa 0,0 l/m 0,0 km/h (0 Bft) W 267 0 min 0,000 mm 0,0 UV-I 0 W/m 12,9 C 14,2 C 0,0 km/h (0 Bft)
_ Min-Zeit 06:00 10:10 18:50 - 01:20 - - - - - - 06:00 06:00 01:25
Minimum _ 14,2 C 58 % 1007,3 hPa - 0,0 km/h (0 Bft) - - - - - - 10,6 C 14,2 C 0,0 km/h (0 Bft)
_ Max-Zeit 11:10 23:15 00:00 12:55 12:15 - - 06:40 10:05 11:00 11:00 19:05 11:10 12:15
Maximum _ 21,9 C 93 % 1011,6 hPa 0,2 l/m 9,6 km/h
S-SO (2 Bft)
- - 5 min 0,254 mm 3,6 UV-I 884 W/m 15,0 C 21,9 C 19,3 km/h
O-SO (3 Bft)
Durchschnitt _ 16,7 C 79 % 1009,1 hPa #0,8 l/m 1,7 km/h (1 Bft) NO - #3:15 h #1,727 mm 1,2 UV-I 180 W/m 12,9 C 16,7 C 5,2 km/h (1 Bft)